カタログに戻る

CZ-6A DEB

運用中PO
NORAD 56637·DEBRIS·🇨🇳 China

打ち上げ Nov 11, 2022 から Taiyuan Satellite Launch Center

Loading…

次のパス (今後24時間)

TLE

最新Source: Space-Track

元期: Sep 14, 2026, 05:11 UTC

1 56637U 22151AFM 26257.21655617  .00005037  00000-0  98758-3 0  9998
2 56637  98.8592 352.5648 0107195  96.0690 265.2735 14.59606024190104

AllMySatでCZ-6A DEBをリアルタイム追跡

Download on the App Store